STARLINK-11405, 63008

Orbit data source: Space-Track

STARLINK-11405, 63008 is a payload satellite owned by SpaceX/Seattle (US) in LEO that was launched on Sat, 15 Feb 2025 UTC via an FALCON 9 launch vehicle from the Air Force Eastern Test Range (AFETR). Payload-class satellites include a variety of spacecraft equipped with specific instruments for various scientific and technological missions. These include communications satellites like Starlink; space stations such as the ISS; scientific satellites like the Hubble; Earth observation satellites from companies like Planet Labs, Umbra, and HawkEye 360; GPS; miniature CubeSats for education and research; and military/defense satellites.

Loading next visibility...
Identifier
63008, 2025-032D
Orbit
LEO
Country
Flag of USUS
Related business
Manufacturer
SpaceX/Seattle
Mission
Operational Commercial Communications
Bus & Motor
STARLINK V2MD, Unknown motor
Mass
960 kg wet, ~910 kg dry
Launch date (UTC)
2025-02-15 (8 months ago)
Launch vehicle
FALCON 9
Launch site
Air Force Eastern Test Range (AFETR)
Object type
Payload
Rocket body
Debris
Shape & HBR
Box + 2 Pan, 18.1 m
Radar Cross Section
36.964 m², Large (>1 m²)

Expand to show TLE details & history
Last TLE update: 1 day ago

TLE from 1 day ago
0 STARLINK-11405
1 63008U 25032D   25301.00830104  .00265992  00000-0  19972-2 0  9999
2 63008  42.9998 275.3547 0002081 244.5295 115.5358 15.71001338 41197
Epoch: 2025-10-28T00:11Z
TLE epoch observation values (Epoch: 2025-10-28T00:11:57.209Z)
Latitude
-0°
Longitude
-124.23564°
Altitude
356.409 km
Speed
7.697 km/s
True Right ascension
18h 21m 25s
True Declination
0° 00' 00"
Sunlit
Object was in daylight at epoch
Visualization orbit readout
Latitude
Unknown
Longitude
Unknown
Altitude
Unknown
Speed
Unknown
Apparent Right ascension
Unknown
Apparent Declination
Unknown
Sunlit
N/A
Visualization observer readout
Local Sidereal Time
23:53:06
Azimuth
Unknown
Elevation
Unknown
Doppler factor
Unknown
Orbital elements
Apogee altitude
359.418 km
Perigee altitude
356.614 km
Semi-major axis
6,736.153 km
Eccentricity
0.00021
Inclination
42.9998°
RAAN
275.3547°
Arg. of periapsis
244.5295°
True anomaly
115.55731°
Mean anomaly
115.5358°
Eccentric anomaly
115.54656°
Mean motion
3.92577 °/min
Orbital period
91.7 mins
BSTAR
0.0019972
Loading maneuver chart data...
Computing Atmospheric mass density...
Loading historical data...
Loading historical data...
Loading historical data...
Loading historical data...
Loading historical data...
Loading historical data...
Loading historical data...

Documentation

Showing up to 5 results
|